Regional Weather Roundup
Issued by NWS Newport/Morehead, NC

Current Version | Previous Version | Text Only | Print | Product List | Glossary Off
Versions: 1 2 3 4 5 6 7 8 9 10 11 12 13 14 15 16 17 18 19 20 21 22 23 24 25 26 27 28 29 30 31 32 33 34 35 36 37 38 39 40 41 42 43 44 45 46 47 48 49 50
000 ASUS42 KMHX 301613 RWRMHX WEATHER ROUNDUP FOR EASTERN NORTH CAROLINA NATIONAL WEATHER SERVICE NEWPORT/MOREHEAD CITY NC 1200 PM EDT THU JUL 30 2015 NOTE: "FAIR" INDICATES FEW OR NO CLOUDS BELOW 12,000 FEET WITH NO SIGNIFICANT WEATHER AND/OR OBSTRUCTIONS TO VISIBILITY NCZ015>017-031-032-045>047-102-103-301700- NORTH COAST CITY SKY/WX TMP DP RH WIND PRES REMARKS EDENTON N/A 87 73 63 CALM 29.96S ELIZABETH CITY PTSUNNY 88 76 67 E6 29.96S KITTY HAWK LGT RAIN 85 76 74 S3 29.96S MANTEO MOSUNNY 85 76 75 S13G20 29.97S $$ NCZ045>047-081-094-103-104-301700- CENTRAL COAST CITY SKY/WX TMP DP RH WIND PRES REMARKS FRISCO CLOUDY 82 76 81 S13G24 29.99R SWANQUARTER N/A 90 N/A N/A S12 29.91S $$ NCZ095-097-098-100-101-301700- SOUTHERN COAST CITY SKY/WX TMP DP RH WIND PRES REMARKS BEAUFORT PTSUNNY 83 78 85 S10 29.97R CEDAR ISLAND N/A 88 N/A N/A S17G24 30.00S JACKSONVILLE MOSUNNY 89 74 60 VRB3 29.95S PINEY ISLAND PTSUNNY N/A N/A N/A MISG 29.96R WILMINGTON PTSUNNY 89 74 60 N7 29.95F $$ NCZ011>013-027>030-043-044-078>080-089-090>093-098-301700- COASTAL PLAIN CITY SKY/WX TMP DP RH WIND PRES REMARKS AHOSKIE SUNNY 87 72 59 N3 29.96F CLINTON SUNNY 89 71 56 CALM 29.98S ELIZABETHTOWN SUNNY 88 68 52 CALM 29.97F GOLDSBORO SUNNY 89 72 58 VRB2 29.95F GREENVILLE SUNNY 90 72 55 W5 29.98F HAVELOCK PTSUNNY 86 76 71 S9 29.96S KENANSVILLE SUNNY 86 69 57 CALM 29.98S KINSTON SUNNY 86 70 58 NE3 29.98S NEW BERN CLOUDY 88 76 67 CALM 29.96S RICHLANDS MOSUNNY 86 72 62 NW3 29.96S ROCKY MOUNT SUNNY 91 70 49 CALM 29.97S WASHINGTON SUNNY 87 75 67 N3 29.96F WHITEVILLE SUNNY 88 69 53 CALM 29.97S $$ AMZ130-135-150-152-154-156-158-170-250-252-270-ANZ085-086-088-633-658-670-301700- MARINE OBSERVATIONS STATION/POSITION TIME TEMP WIND PRES WAVE SWELL AIR SEA DIR/SP/G HT/PER HT/PER (UTC) (F) (DEG/KT/KT) (MB) (FT/S) (FT/S) CHESAPEAKE LIGHT 1600 80 180/ 7/ 7 1015.5 64 E VA BEACH 1550 81 82 180/ 12/ 14 1014.7 3/11 2/11 DUCK 1500 81 63 120/ 8/ 9 1014.0 2 E DUCK 1511 72 N/A 2/10 OREGON INLET 1500 83 81 170/ 14/ 17 1014.9 13E OREGON INLT 1600 81 N/A 3/ 9 HATTERAS CG 1500 82 83 210/ 7/ 8 1014.9 DIAMOND BUOY 1550 84 85 190/ 17/ 21 1015.1 4/ 5 2/ 8 CAPE LOOKOUT 1600 82 180/ 12/ 14 1014.4 BEAUFORT LAB 1500 82 81 170/ 9/ 12 1013.5 30 SE NEW RVR IN NOT AVBL 27 SE WRIGHTSVLE 1500 79 82 20/ 4/ 6 N/A 5 SE WRIGHTSVLE 1508 80 82 10/ 4/ 6 1014.5 225 S CAPE HAT 1550 81 81 200/ 17/ 21 1015.5 9/ 8 41 SE CHARLESTON 1550 82 85 10/ 10/ 14 1014.1 3/ 8 3/ 8 $$

USA.gov is the U.S. government's official web portal to all federal, state and local government web resources and services.